This demonstration page uses our WeatherBlox Daily Observations layout. Learn more.

Left ArrowRight Arrow

44.31136, -96.79839

Hourly Observations for July 12, 2015

Temp ( °F °C ) Dew Point ( °F °C ) Humidity (%) Winds ( mph kmh ) Pressure ( in mb ) Visibility ( mi km ) Precip ( " mm )
12:15 am 00:15 Clear 73 23 68 20 83 83 SSE 7 11 29.85 1011 10 16 0.00 0.00
12:35 am 00:35 Clear 73 23 68 20 83 83 SE 8 13 29.85 1011 10 16 0.00 0.00
12:55 am 00:55 Clear 72 22 68 20 88 88 SE 8 13 29.85 1011 10 16 0.00 0.00
1:15 am 01:15 Clear 72 22 68 20 88 88 SE 8 13 29.85 1011 10 16 0.00 0.00
1:35 am 01:35 Clear 72 22 68 20 88 88 SSE 8 13 29.85 1011 10 16 0.00 0.00
1:55 am 01:55 Clear 72 22 68 20 88 88 SSE 9 15 29.85 1011 10 16 0.00 0.00
2:15 am 02:15 Clear 72 22 68 20 88 88 SE 10 17 29.85 1011 10 16 0.00 0.00
2:35 am 02:35 Clear 72 22 68 20 88 88 SSE 10 17 29.85 1011 9 14 0.00 0.00
2:55 am 02:55 Clear 72 22 68 20 88 88 SSE 9 15 29.85 1011 7 11 0.00 0.00
3:15 am 03:15 Clear 72 22 68 20 88 88 SSE 10 17 29.85 1011 7 11 0.00 0.00
3:35 am 03:35 Clear 72 22 68 20 88 88 SSE 10 17 29.83 1010 6 10 0.00 0.00
3:55 am 03:55 Clear 72 22 68 20 88 88 SE 9 15 29.83 1010 6 10 0.00 0.00
4:15 am 04:15 Clear 72 22 68 20 88 88 SSE 9 15 29.83 1010 5 8 0.00 0.00
4:35 am 04:35 Clear 72 22 68 20 88 88 SSE 9 15 29.83 1010 5 8 0.00 0.00
4:55 am 04:55 Clear 72 22 68 20 88 88 SSE 8 13 29.83 1010 4 6 0.00 0.00
5:15 am 05:15 Mostly Cloudy 72 22 70 21 94 94 SSE 8 13 29.83 1010 3 5 0.00 0.00
5:35 am 05:35 Cloudy 72 22 70 21 94 94 S 9 15 29.83 1010 2 2 0.00 0.00
5:55 am 05:55 Cloudy 72 22 70 21 94 94 S 9 15 29.83 1010 1 1 0.00 0.00
6:15 am 06:15 Cloudy 72 22 70 21 94 94 S 9 15 29.83 1010 0 0 0.00 0.00
6:35 am 06:35 Cloudy 72 22 70 21 94 94 S 10 17 29.83 1010 1 1 0.00 0.00
6:55 am 06:55 Cloudy 73 23 70 21 89 89 S 9 15 29.83 1010 1 1 0.00 0.00
7:15 am 07:15 Cloudy 73 23 70 21 89 89 SSE 10 17 29.83 1010 1 1 0.00 0.00
7:35 am 07:35 Cloudy 73 23 70 21 89 89 S 10 17 29.83 1010 1 1 0.00 0.00
7:55 am 07:55 Cloudy 73 23 72 22 94 94 S 10 17 29.83 1010 1 1 0.00 0.00
8:15 am 08:15 Cloudy 73 23 72 22 94 94 S 9 15 29.83 1010 1 1 0.00 0.00
8:35 am 08:35 Cloudy 73 23 72 22 94 94 S 12 19 29.83 1010 2 3 0.00 0.00
8:55 am 08:55 Cloudy 73 23 72 22 94 94 S 12 19 29.83 1010 3 5 0.00 0.00
9:15 am 09:15 Cloudy 73 23 72 22 94 94 S 9 15 29.83 1010 5 8 0.00 0.00
9:35 am 09:35 Cloudy 75 24 72 22 89 89 SSE 13 20 29.80 1009 7 11 0.00 0.00
9:55 am 09:55 Cloudy 75 24 72 22 89 89 SE 12 19 29.80 1009 8 13 0.00 0.00
10:15 am 10:15 Cloudy 75 24 72 22 89 89 SSE 10 17 29.80 1009 7 11 0.00 0.00
10:35 am 10:35 Cloudy 77 25 73 23 89 89 S 13 20 29.80 1009 9 14 0.00 0.00
10:55 am 10:55 Cloudy 77 25 73 23 89 89 S 10 17 29.77 1008 9 14 0.00 0.00
11:15 am 11:15 Partly Cloudy 81 27 75 24 84 84 SSE 13 20 29.77 1008 10 16 0.00 0.00
11:35 am 11:35 Sunny 81 27 75 24 84 84 S 13 20 29.77 1008 10 16 0.00 0.00
11:55 am 11:55 Sunny 82 28 75 24 79 79 SSE 13 20 29.74 1007 10 16 0.00 0.00
12:15 pm 12:15 Sunny 84 29 75 24 74 74 S 14 22 29.71 1006 10 16 0.00 0.00
12:35 pm 12:35 Sunny 84 29 77 25 79 79 S 14 22 29.71 1006 10 16 0.00 0.00
12:55 pm 12:55 Sunny 86 30 75 24 70 70 SSE 14 22 29.71 1006 10 16 0.00 0.00
1:15 pm 13:15 Sunny 88 31 77 25 70 70 SSE 15 24 29.71 1006 10 16 0.00 0.00
1:35 pm 13:35 Sunny 88 31 75 24 66 66 S 18 30 29.71 1006 10 16 0.00 0.00
1:55 pm 13:55 Sunny 90 32 75 24 63 63 SSE 18 30 29.68 1005 10 16 0.00 0.00
2:15 pm 14:15 Sunny 90 32 73 23 59 59 SSE 15 24 29.68 1005 10 16 0.00 0.00
2:35 pm 14:35 Sunny 90 32 72 22 55 55 SSE 14 22 29.68 1005 10 16 0.00 0.00
2:55 pm 14:55 Sunny 90 32 72 22 55 55 S 15 24 29.68 1005 10 16 0.00 0.00
3:15 pm 15:15 Sunny 90 32 72 22 55 55 S 14 22 29.68 1005 10 16 0.00 0.00
3:35 pm 15:35 Sunny 90 32 73 23 59 59 S 13 20 29.68 1005 10 16 0.00 0.00
3:55 pm 15:55 Sunny 91 33 73 23 56 56 S 16 26 29.65 1004 10 16 0.00 0.00
4:15 pm 16:15 Sunny 91 33 73 23 56 56 S 20 31 29.62 1003 10 16 0.00 0.00
4:35 pm 16:35 Sunny 91 33 73 23 56 56 S 21 33 29.62 1003 10 16 0.00 0.00
4:55 pm 16:55 Sunny 91 33 73 23 56 56 S 18 30 29.62 1003 10 16 0.00 0.00
5:15 pm 17:15 Sunny 91 33 73 23 56 56 S 17 28 29.62 1003 10 16 0.00 0.00
5:35 pm 17:35 Sunny 91 33 75 24 59 59 S 20 31 29.62 1003 10 16 0.00 0.00
5:55 pm 17:55 Sunny 91 33 75 24 59 59 S 16 26 29.59 1002 10 16 0.00 0.00
6:15 pm 18:15 Sunny 90 32 75 24 63 63 S 14 22 29.62 1003 10 16 0.00 0.00
6:35 pm 18:35 Sunny 90 32 75 24 63 63 S 20 31 29.62 1003 10 16 0.00 0.00
6:55 pm 18:55 Sunny 90 32 75 24 63 63 S 15 24 29.62 1003 10 16 0.00 0.00
7:15 pm 19:15 Sunny 90 32 75 24 63 63 SSW 15 24 29.62 1003 10 16 0.00 0.00
7:35 pm 19:35 Sunny 90 32 77 25 67 67 SSW 16 26 29.62 1003 10 16 0.00 0.00
7:55 pm 19:55 Sunny 90 32 73 23 59 59 WSW 10 17 29.62 1003 10 16 0.00 0.00
8:15 pm 20:15 Sunny 88 31 70 21 55 55 SW 9 15 29.62 1003 10 16 0.00 0.00
8:35 pm 20:35 Sunny 84 29 66 19 55 55 SW 9 15 29.62 1003 10 16 0.00 0.00
8:55 pm 20:55 Sunny 81 27 66 19 62 62 SW 9 15 29.62 1003 10 16 0.00 0.00
9:15 pm 21:15 Clear 81 27 66 19 62 62 WSW 7 11 29.62 1003 10 16 0.00 0.00
9:35 pm 21:35 Clear 77 25 64 18 65 65 SW 7 11 29.68 1005 10 16 0.00 0.00
9:55 pm 21:55 Clear 77 25 64 18 65 65 SW 7 11 29.68 1005 10 16 0.00 0.00
10:15 pm 22:15 Clear 75 24 64 18 69 69 SW 3 6 29.68 1005 10 16 0.00 0.00
10:35 pm 22:35 Clear 75 24 64 18 69 69 WSW 6 9 29.68 1005 10 16 0.00 0.00
10:55 pm 22:55 Clear 73 23 64 18 74 74 SW 3 6 29.68 1005 10 16 0.00 0.00
11:15 pm 23:15 Clear 73 23 64 18 74 74 WSW 5 7 29.68 1005 10 16 0.00 0.00
11:35 pm 23:35 Clear 73 23 64 18 74 74 Calm 29.68 1005 10 16 0.00 0.00
11:55 pm 23:55 Clear 73 23 64 18 74 74 SW 5 7 29.68 1005 10 16 0.00 0.00

Powered by AerisWeather